Cape Girardeau, MO

4:33 PM CST on December 10, 2019 (GMT -0600)
Cape Girardeau Regional

Weather History for KCGI - October, 2019

Change the Weather History Date:

Tuesday, October 29, 2019

  Actual Average Record
Temperature  
Mean Temperature 57 °F 54 °F  
Max Temperature 60 °F 66 °F 84 °F (1971)
Min Temperature 54 °F 42 °F 24 °F (1976)
Degree Days  
Heating Degree Days 8 11  
Month to date heating degree days 199 220  
Since 1 July heating degree days 199 269  
Cooling Degree Days 0 0  
Month to date cooling degree days 51 29  
Year to date cooling degree days 1775 1451  
Growing Degree Days 2 (Base 50)    
Moisture  
Dew Point 47 °F    
Average Humidity 83    
Maximum Humidity 93    
Minimum Humidity 72    
Precipitation  
Precipitation 0.00 in 0.12 in 0.97 in (1984)
Month to date precipitation 7.02 3.40  
Year to date precipitation 54.69 37.73  
Sea Level Pressure  
Sea Level Pressure 30.15 in    
Wind  
Wind Speed 5 mph (North)    
Max Wind Speed 15 mph    
Max Gust Speed 20 mph    
Visibility 9 miles    
Events Rain    
T = Trace of Precipitation, MM = Missing Value Source: NWS Daily Summary

Daily Weather History Graph

Daily Weather History Graph

Search for Another Location

Airport or City:

Astronomy

Oct. 29, 2019 Rise Set
Actual Time 7:19 AM CDT 6:03 PM CDT
Civil Twilight 6:52 AM CDT 6:30 PM CDT
Nautical Twilight 6:22 AM CDT 7:01 PM CDT
Astronomical Twilight 5:51 AM CDT 7:31 PM CDT
Moon 8:51 AM CDT (10/29) 7:30 PM CDT (10/29)
Length of Visible Light 11h 38m
Length of Day
10h 44m
Waxing Crescent, 3% of the Moon is Illuminated
Oct 29
Waxing Crescent
Nov 4
First Quarter
Nov 12
Full
Nov 19
Last Quarter
Nov 26
New

Hourly Weather History & Observations

Time (CDT) Temp. Dew Point Humidity Pressure Visibility Wind Dir Wind Speed Gust Speed Precip Events Conditions
12:53 AM 55.9 °F 50.0 °F 80% 30.04 in 10.0 mi South 8.1 mph - N/A   Overcast
1:45 AM 55.0 °F 50.0 °F 83% 30.05 in 10.0 mi South 8.1 mph - N/A   Partly Cloudy
1:53 AM 55.0 °F 50.0 °F 83% 30.05 in 10.0 mi South 6.9 mph - N/A   Partly Cloudy
2:53 AM 54.0 °F 51.1 °F 90% 30.06 in 10.0 mi SW 6.9 mph - N/A   Partly Cloudy
4:03 AM 53.1 °F 50.0 °F 89% 30.06 in 10.0 mi SW 4.6 mph - N/A   Mostly Cloudy
4:17 AM 54.0 °F 51.1 °F 90% 30.07 in 10.0 mi SW 5.8 mph - N/A   Overcast
4:53 AM 54.0 °F 51.1 °F 90% 30.07 in 10.0 mi SW 6.9 mph - N/A   Overcast
5:50 AM 53.6 °F 51.8 °F 94% 30.09 in 10.0 mi Calm Calm - N/A   Overcast
5:53 AM 54.0 °F 51.1 °F 90% 30.09 in 10.0 mi Calm Calm - N/A   Overcast
6:53 AM 55.0 °F 52.0 °F 89% 30.11 in 10.0 mi SW 5.8 mph - N/A   Overcast
7:53 AM 54.0 °F 52.0 °F 93% 30.14 in 4.0 mi SW 3.5 mph - N/A   Overcast
8:21 AM 55.0 °F 53.1 °F 93% 30.15 in 2.0 mi Calm Calm - N/A   Overcast
8:53 AM 50.0 °F 48.0 °F 93% 30.17 in 2.5 mi NNW 11.5 mph - 0.00 in Rain Light Rain
9:03 AM 50.0 °F 48.0 °F 93% 30.18 in 3.0 mi NNW 10.4 mph - 0.00 in Rain Light Rain
9:11 AM 50.0 °F 48.0 °F 93% 30.18 in 6.0 mi North 9.2 mph - 0.00 in Rain Light Rain
9:39 AM 51.1 °F 48.0 °F 89% 30.19 in 7.0 mi North 11.5 mph - 0.00 in Rain Light Rain
9:53 AM 50.0 °F 46.9 °F 89% 30.20 in 5.0 mi North 12.7 mph - 0.00 in Rain Light Rain
10:21 AM 50.0 °F 46.0 °F 86% 30.19 in 10.0 mi NNE 9.2 mph - 0.00 in Rain Light Rain
10:30 AM 50.0 °F 46.9 °F 89% 30.19 in 10.0 mi North 10.4 mph - 0.00 in Rain Light Rain
10:44 AM 50.0 °F 46.0 °F 86% 30.19 in 10.0 mi North 11.5 mph - 0.00 in Rain Light Rain
10:53 AM 50.0 °F 46.0 °F 86% 30.20 in 10.0 mi North 10.4 mph - 0.00 in Rain Light Rain
11:53 AM 51.1 °F 45.0 °F 80% 30.22 in 10.0 mi North 10.4 mph - 0.00 in Rain Light Rain
12:23 PM 52.0 °F 45.0 °F 77% 30.20 in 10.0 mi North 11.5 mph - 0.00 in Rain Light Rain
12:53 PM 53.1 °F 46.0 °F 77% 30.19 in 10.0 mi NNE 10.4 mph - 0.00 in Rain Light Rain
1:53 PM 54.0 °F 45.0 °F 72% 30.17 in 10.0 mi NNE 9.2 mph - 0.00 in Rain Light Rain
2:53 PM 54.0 °F 44.1 °F 69% 30.18 in 10.0 mi NE 11.5 mph - 0.00 in Rain Light Rain
3:53 PM 52.0 °F 43.0 °F 71% 30.19 in 10.0 mi NNE 9.2 mph - 0.00 in Rain Light Rain
4:53 PM 51.1 °F 43.0 °F 74% 30.17 in 10.0 mi NNE 12.7 mph - 0.00 in Rain Light Rain
5:53 PM 51.1 °F 43.0 °F 74% 30.16 in 10.0 mi NNE 10.4 mph - 0.00 in Rain Light Rain
6:53 PM 50.0 °F 42.1 °F 74% 30.15 in 10.0 mi NNE 11.5 mph - 0.00 in Rain Light Rain
7:53 PM 48.9 °F 42.1 °F 77% 30.16 in 10.0 mi NNE 11.5 mph - 0.00 in Rain Light Rain
8:53 PM 48.0 °F 42.1 °F 80% 30.16 in 10.0 mi NE 12.7 mph - 0.00 in Rain Light Rain
9:03 PM 48.0 °F 42.1 °F 80% 30.16 in 10.0 mi NNE 13.8 mph - 0.00 in Rain Light Rain
9:27 PM 48.0 °F 42.1 °F 80% 30.17 in 10.0 mi NNE 11.5 mph - 0.00 in Rain Light Rain
9:42 PM 48.0 °F 42.1 °F 80% 30.17 in 10.0 mi North 9.2 mph - 0.00 in Rain Light Rain
9:53 PM 48.0 °F 42.1 °F 80% 30.18 in 10.0 mi North 11.5 mph - 0.00 in Rain Light Rain
10:53 PM 48.0 °F 43.0 °F 83% 30.18 in 10.0 mi NNE 8.1 mph - 0.00 in Rain Light Rain
11:53 PM 46.9 °F 43.0 °F 86% 30.17 in 10.0 mi North 9.2 mph - 0.00 in Rain Light Rain